This is the latest recevied weather packets stored in our database for station/object HP3ICC-22. If no packets are shown the sender has not sent any weather packets the latest 10 day(s).
| Time | Temp. | Humidity | Pressure | Rain* | Wind** | Luminosity | Snow |
|---|---|---|---|---|---|---|---|
| 1778072668 | 12.22° C | 88% | 1013 hPa | 0 mm | - | - | - |
| 1778072607 | 12.22° C | 88% | 1013 hPa | 0 mm | - | - | - |
| 1778071467 | 10° C | 89% | 1014 hPa | 0 mm | - | - | - |
| 1778071407 | 10° C | 89% | 1014 hPa | 0 mm | - | - | - |
| 1778070267 | 10° C | 90% | 1013 hPa | 0 mm | - | - | - |
| 1778070207 | 10° C | 90% | 1013 hPa | 0 mm | - | - | - |
| 1778069066 | 11.11° C | 90% | 1013 hPa | 0 mm | - | - | - |
| 1778069006 | 11.11° C | 90% | 1013 hPa | 0 mm | - | - | - |
| 1778067866 | 9.44° C | 79% | 1014 hPa | 0 mm | - | - | - |
| 1778067805 | 9.44° C | 79% | 1014 hPa | 0 mm | - | - | - |
| 1778066665 | 8.89° C | 86% | 1012 hPa | 0 mm | - | - | - |
| 1778066605 | 8.89° C | 86% | 1012 hPa | 0 mm | - | - | - |
| 1778065465 | 9.44° C | 79% | 1013 hPa | 0 mm | - | - | - |
| 1778065404 | 9.44° C | 79% | 1013 hPa | 0 mm | - | - | - |
| 1778064264 | 8.89° C | 87% | 1014 hPa | 0 mm | - | - | - |
| 1778064204 | 8.89° C | 87% | 1014 hPa | 0 mm | - | - | - |
| 1778063064 | 9.44° C | 79% | 1013 hPa | 0 mm | - | - | - |
| 1778063004 | 9.44° C | 79% | 1013 hPa | 0 mm | - | - | - |
| 1778061863 | 8.89° C | 89% | 1012 hPa | 0 mm | - | - | - |
| 1778061803 | 8.89° C | 89% | 1012 hPa | 0 mm | - | - | - |
| 1778060663 | 9.44° C | 79% | 1013 hPa | 0 mm | - | - | - |
| 1778060602 | 9.44° C | 79% | 1013 hPa | 0 mm | - | - | - |
| 1778059462 | 8.89° C | 86% | 1012 hPa | 0 mm | - | - | - |
| 1778059402 | 8.89° C | 86% | 1012 hPa | 0 mm | - | - | - |
| 1778058262 | 8.89° C | 81% | 1012 hPa | 0 mm | - | - | - |
* Rain latest hour (hover to see other rain measurements)
** Current wind speed in m/s (hover to see current wind gust speed)